Wind_Speed
9 10 11 11 12 13 15 17 17 19 20 22 22 24 25 27 28 29 30 31 30 30 29 25 20 15 6 4 5 19 27 25 22 25 18 9 6 5 14 5 12 23 26 11 16 20 12
8 9 11 12 12 13 16 16 18 20 21 22 23 24 26 28 30 32 32 32 32 32 28 17 9 1 5 2 8 21 25 25 20 20 10 7 6 8 13 18 21 8 18 29 22 17 7
8 9 10 11 13 14 15 17 19 19 21 22 24 25 27 30 32 33 33 32 31 25 28 9 2 2 2 6 8 25 24 25 19 19 5 13 11 8 8 10 8 12 22 23 25 19 18
8 9 10 12 12 14 16 17 18 20 21 23 25 27 28 30 32 33 31 33 33 22 26 8 7 2 1 8 14 26 27 24 25 14 19 17 19 11 12 9 9 8 10 19 20 25 15
8 9 10 10 13 14 16 17 19 21 23 25 26 28 29 30 31 28 27 32 24 8 12 7 8 1 3 14 24 21 23 16 15 17 18 11 9 6 5 12 14 9 16 17 17 12 9
7 9 10 11 12 14 15 17 19 20 23 26 28 29 30 31 29 24 28 20 14 8 17 4 17 3 8 8 22 18 24 24 4 8 6 6 4 4 4 7 18 22 21 17 16 6 19
7 8 9 10 11 13 15 17 19 21 23 25 28 30 31 30 26 22 29 4 9 7 14 2 8 2 5 16 22 21 26 18 7 5 5 5 3 6 14 12 17 11 10 14 21 21 9
6 7 8 10 11 13 14 17 19 22 25 26 28 29 30 26 19 22 20 8 5 5 6 4 7 5 16 10 5 14 21 6 5 8 7 5 5 8 12 16 17 21 19 17 16 16 17
5 7 8 9 11 13 15 17 20 23 25 27 29 30 26 23 11 22 15 12 16 4 1 7 4 3 10 11 6 15 11 7 3 6 7 3 12 13 14 17 14 16 11 8 12 13 20
5 6 8 9 12 13 15 18 20 23 25 27 29 29 24 22 4 17 6 24 19 2 2 9 8 5 9 12 6 24 11 2 4 3 5 6 9 18 20 17 14 13 12 17 17 11 10
4 6 8 9 12 13 16 18 20 23 26 28 30 26 20 18 12 9 21 29 4 4 4 16 5 9 12 4 7 4 14 4 5 7 3 12 20 20 20 12 11 9 14 17 16 13 12
4 5 7 9 10 13 16 18 20 24 26 28 30 19 19 23 21 25 30 11 4 5 3 7 10 19 14 14 14 6 7 4 4 6 14 15 13 9 7 11 13 18 12 17 13 11 14
3 4 7 9 10 12 15 18 22 24 26 28 28 13 22 19 15 27 21 3 4 6 7 10 16 16 16 13 13 7 10 9 1 6 12 18 11 8 7 16 10 8 11 3 6 8 7
4 5 6 8 10 12 14 18 20 24 26 28 18 15 21 26 25 24 8 5 9 5 3 12 13 17 7 11 11 6 12 5 2 2 8 6 25 12 12 13 9 17 6 3 7 5 10
4 5 5 7 9 12 14 16 20 24 27 28 14 11 26 25 24 20 5 6 2 3 7 9 13 5 4 11 7 6 5 4 5 2 5 6 17 24 15 14 6 6 3 7 4 8 4
4 4 4 6 8 11 12 16 19 22 26 27 10 6 20 25 17 14 5 7 1 2 6 6 3 3 7 7 9 11 3 4 6 3 1 3 18 10 15 11 6 9 4 5 3 3 6
4 3 4 6 9 10 13 15 18 21 25 26 5 3 16 21 8 5 4 2 3 5 4 3 4 5 7 4 9 4 6 9 1 12 4 8 6 12 12 7 11 7 4 3 5 5 3
3 2 3 6 9 11 12 14 16 20 24 18 4 2 13 17 4 2 2 5 5 4 3 4 3 4 5 11 6 5 6 9 10 11 14 3 4 9 18 7 4 7 6 5 4 4 4
4 2 3 5 7 9 11 14 16 18 20 9 2 2 5 8 3 3 4 4 3 3 6 3 4 4 3 7 6 7 7 13 11 11 4 3 2 9 9 2 2 6 12 19 3 2 4
5 2 3 5 7 8 11 12 14 16 18 5 3 3 3 4 2 5 2 4 5 5 5 3 7 6 9 9 4 9 9 9 20 8 18 9 3 4 5 12 12 12 21 23 14 2 4
5 3 2 4 6 8 9 11 13 14 17 3 3 2 2 3 2 2 2 1 5 8 3 3 3 8 7 5 6 3 12 20 12 8 9 2 3 10 16 12 6 13 22 20 26 17 9
5 3 1 3 5 6 8 9 10 11 11 5 2 3 2 3 3 2 2 3 3 5 3 5 5 14 10 4 6 18 18 11 6 9 5 3 4 13 5 7 9 13 25 12 24 26 14
6 3 1 1 3 4 6 8 9 9 9 2 1 2 1 4 0 2 3 3 5 10 7 7 8 11 11 7 11 20 13 9 9 5 4 4 6 5 5 12 11 4 22 18 10 19 17
7 4 2 1 3 4 6 7 8 7 6 3 1 2 1 4 1 4 5 7 8 9 6 10 6 2 6 15 12 6 4 5 5 4 6 8 8 4 5 9 4 4 15 15 11 18 25
7 5 3 2 3 4 6 7 7 6 7 6 4 1 1 3 3 9 3 5 6 6 4 4 6 5 9 7 5 6 5 6 5 3 7 5 4 4 4 4 1 4 22 19 8 3 22
8 6 4 2 3 4 6 7 7 8 7 7 7 4 3 2 4 2 3 2 2 3 6 4 7 11 4 2 3 3 2 3 6 10 6 6 5 2 4 4 6 8 25 27 2 2 25
9 6 4 3 4 4 6 7 8 9 8 8 4 4 3 2 3 4 1 3 3 1 3 4 6 7 4 3 3 2 3 1 4 6 7 6 5 5 6 3 2 15 17 17 10 10 24
8 6 5 3 5 5 7 7 9 9 8 8 5 6 5 2 4 6 4 3 1 0 2 4 4 3 3 5 2 2 1 3 2 4 5 1 4 3 4 4 5 18 5 9 8 12 17
8 6 5 4 5 6 7 8 10 9 9 9 5 7 7 4 5 4 13 18 14 12 2 1 3 1 2 1 1 2 2 1 2 3 3 4 4 2 1 3 8 13 5 6 12 14 13
Wind_Direction
55 43 34 27 23 16 12 7 7 3 358 355 353 350 346 345 342 340 336 332 329 327 322 317 313 309 313 11 279 358 352 0 2 6 11 340 228 222 242 223 223 247 251 255 240 245 256
48 37 26 22 16 17 7 10 5 360 357 355 352 349 345 344 342 339 336 332 333 333 333 323 333 47 103 330 355 355 358 358 355 354 340 341 312 298 298 258 245 270 263 255 257 256 254
44 28 27 25 15 15 11 6 3 1 358 354 350 350 347 344 343 340 337 334 334 334 346 330 332 347 202 250 359 353 2 358 351 340 307 305 281 247 325 312 350 295 272 276 260 253 233
39 33 25 21 20 12 7 5 2 358 356 354 351 350 349 345 343 342 340 336 331 333 341 340 254 305 265 13 355 5 1 348 342 350 323 292 283 252 231 250 289 282 278 254 258 245 251
37 31 25 30 17 10 8 6 2 359 356 354 352 350 347 345 345 345 341 337 334 337 13 43 65 92 15 353 355 349 1 326 327 334 320 334 316 237 269 261 269 217 257 255 268 203 192
35 35 39 19 17 13 9 4 1 357 355 353 351 348 347 345 346 350 351 342 344 31 25 43 28 44 16 322 335 341 355 344 304 308 322 3 320 331 306 248 252 264 261 266 248 224 215
42 21 21 24 20 15 10 6 2 358 355 354 350 348 347 344 349 356 2 14 10 358 26 323 291 264 278 311 335 348 357 348 351 7 4 311 308 265 274 277 291 302 299 296 277 265 319
34 35 29 20 17 11 8 3 360 356 356 354 352 349 345 343 349 6 17 55 85 247 319 330 254 249 285 279 287 344 0 346 330 322 341 348 260 275 324 317 296 292 281 280 279 276 246
43 32 23 18 12 10 5 359 358 355 355 353 350 349 349 343 338 356 10 32 358 358 259 308 301 325 342 338 321 337 353 317 296 309 326 205 267 297 308 305 295 293 261 289 284 299 284
33 25 21 14 11 7 1 0 358 353 354 352 351 350 351 351 2 340 353 341 335 181 62 3 1 350 350 320 354 323 332 282 323 288 304 289 286 310 304 298 297 276 263 260 273 287 252
33 24 12 8 2 1 359 0 357 353 350 351 352 350 357 5 331 336 331 334 23 129 44 324 347 315 326 326 302 315 331 333 270 289 81 275 292 297 293 283 299 272 291 276 253 254 262
55 26 12 360 7 0 1 358 357 351 351 352 351 358 11 8 352 338 336 354 113 45 337 339 331 330 337 326 333 302 332 11 269 284 300 295 292 273 253 288 281 298 298 253 241 250 246
70 35 4 18 7 6 4 2 354 351 351 351 351 25 19 7 333 338 342 63 40 65 344 334 325 327 319 332 327 322 326 317 245 331 328 314 315 306 241 319 300 301 325 259 205 223 241
77 33 17 15 11 10 5 358 356 351 349 350 1 23 17 5 356 343 16 55 62 331 314 309 318 316 324 347 325 311 317 301 276 189 310 338 322 334 315 310 295 303 211 257 235 199 215
72 55 33 19 16 7 2 2 355 350 348 349 352 13 15 3 357 351 65 52 133 284 293 315 315 317 304 327 335 332 276 246 238 165 330 310 306 318 299 355 298 339 233 266 263 250 264
96 73 40 20 12 9 4 359 355 350 347 349 355 345 10 4 360 21 57 90 190 258 299 305 323 335 301 317 330 331 311 246 289 191 170 268 303 303 330 333 309 308 293 345 260 264 218
117 89 41 18 12 8 8 5 356 354 349 348 22 41 358 3 18 40 84 240 284 267 323 303 289 288 272 296 308 284 265 296 302 326 236 296 215 296 322 328 304 344 332 322 271 261 263
133 87 40 24 14 12 8 5 4 1 352 353 12 42 357 357 46 33 30 328 289 276 288 279 259 205 231 317 298 301 282 298 297 323 311 255 281 310 310 315 180 351 285 257 232 290 271
146 94 47 25 17 15 15 8 7 3 356 345 74 280 357 9 61 342 317 296 255 300 317 308 287 256 256 307 317 281 311 306 323 320 286 286 276 317 332 345 232 336 337 346 242 270 279
154 127 44 25 22 25 11 12 8 4 360 13 63 18 331 45 82 127 358 291 315 301 283 287 278 286 320 302 240 282 304 318 323 304 341 355 275 228 272 280 302 343 358 10 15 346 21
165 146 42 22 14 15 13 10 10 8 5 12 33 293 169 310 327 344 171 260 299 337 303 295 295 310 321 295 309 275 318 334 316 304 332 63 278 301 308 301 303 12 353 22 28 17 40
178 161 50 12 3 10 9 9 8 9 9 64 96 44 344 273 298 345 304 276 289 312 240 290 277 314 306 226 225 302 314 320 271 310 313 345 286 317 300 302 329 30 1 13 28 22 17
183 179 157 5 350 0 359 1 359 7 22 74 335 254 178 270 201 82 227 319 294 309 289 236 298 312 300 283 301 290 287 247 244 291 311 303 315 318 300 322 318 356 7 353 22 34 13
187 187 190 304 327 341 349 352 351 356 354 19 241 239 294 275 200 285 293 300 280 304 268 289 305 249 275 313 304 300 285 262 210 256 227 307 319 296 291 315 52 145 9 357 354 36 12
194 203 211 267 320 330 340 343 341 344 333 340 335 247 196 277 229 296 276 269 316 297 275 269 286 254 316 311 359 349 344 356 327 312 341 348 307 312 331 321 274 321 351 344 335 357 13
198 210 228 266 304 317 328 329 331 328 327 318 326 230 194 258 259 250 271 203 265 299 327 278 312 317 342 341 40 40 324 299 323 323 338 331 357 20 329 344 21 357 335 330 257 178 358
202 215 240 270 290 307 312 317 320 321 324 312 303 219 212 191 255 133 211 213 183 333 268 302 327 339 4 358 19 26 308 263 344 324 337 343 348 12 354 352 68 356 346 336 42 316 326
204 217 235 263 287 301 302 309 313 315 319 308 286 258 217 185 270 212 221 175 16 314 180 278 8 351 351 25 41 275 131 276 1 297 335 57 345 345 352 11 0 12 352 36 303 308 319
205 220 237 261 291 299 297 309 312 311 313 300 282 229 237 221 244 246 271 264 258 234 243 345 196 256 269 30 281 261 281 27 152 295 11 13 138 230 311 272 341 327 266 355 332 319 318
Height
864 863 862 860 858 857 855 853 850 848 845 841 837 832 828 823 818 813 808 803 797 792 788 785 782 781 782 784 780 774 771 767 763 760 761 760 758 757 748 745 742 736 716 724 722 723 726
865 864 863 861 859 858 856 853 851 848 844 840 836 832 827 822 816 811 806 799 794 788 782 779 779 778 779 785 777 774 771 767 764 761 760 759 757 756 750 739 734 723 724 721 722 720 723
866 865 863 862 860 858 856 854 851 847 844 840 836 831 826 821 815 809 803 797 792 787 781 778 777 777 777 781 776 774 770 767 766 764 760 756 755 753 748 743 738 732 729 725 713 714 716
867 865 864 862 861 859 856 854 851 848 844 840 836 831 826 820 814 807 800 793 787 785 781 774 776 779 780 778 779 772 770 768 764 762 759 752 749 747 744 743 738 737 729 712 698 711 711
867 866 864 863 861 859 856 854 851 847 843 839 835 830 825 819 813 807 799 791 785 781 778 777 777 778 782 779 776 774 772 767 764 761 754 751 749 746 742 741 738 729 715 709 701 697 706
868 866 865 863 861 859 856 854 850 847 843 837 833 828 823 818 812 807 801 791 784 782 776 777 779 785 784 785 779 777 773 768 764 760 756 755 754 755 751 746 731 722 720 709 705 695 694
867 867 866 864 862 859 857 854 851 847 843 838 833 827 823 817 813 808 802 793 794 792 791 802 800 799 792 787 782 778 773 768 765 765 769 762 765 772 756 748 734 742 742 732 712 704 712
868 867 866 864 862 860 857 854 851 847 842 838 833 827 821 816 813 809 806 806 814 817 811 798 797 798 792 788 784 780 777 776 772 772 770 771 777 758 749 747 749 743 737 733 720 705 701
868 867 866 865 863 860 858 855 851 847 843 838 832 826 821 815 812 809 809 811 812 811 814 804 798 796 793 790 787 783 778 776 775 775 776 786 764 754 751 751 753 748 737 734 730 714 702
868 867 866 865 863 860 858 855 851 847 842 837 832 826 821 816 814 812 809 810 808 808 816 808 803 800 797 793 790 782 779 779 778 784 773 775 758 752 750 748 743 747 728 727 728 727 710
868 868 866 865 863 860 858 854 851 846 842 837 832 826 821 817 817 813 813 807 804 807 847 815 809 802 801 800 795 784 780 777 781 779 782 773 760 753 746 741 742 733 730 730 713 718 715
869 868 867 865 863 861 857 853 849 846 841 836 831 826 823 818 815 812 808 804 806 828 871 818 814 809 805 799 793 788 783 780 777 776 767 767 752 751 744 734 733 728 726 719 706 708 700
868 868 868 867 865 862 859 855 850 845 840 835 831 827 823 820 818 810 805 806 832 858 829 825 818 811 807 801 796 793 788 798 801 795 781 762 752 742 735 737 725 728 734 739 711 704 694
869 869 869 868 866 863 860 856 851 846 842 837 831 829 826 823 817 810 805 820 850 837 834 825 819 813 810 805 801 796 792 803 794 803 786 784 761 747 737 744 739 728 727 731 687 680 668
869 868 869 868 866 863 860 857 853 848 843 838 832 829 827 824 818 813 818 850 853 845 836 828 821 820 818 809 813 810 806 818 809 805 799 792 763 749 734 730 734 719 711 712 712 678 679
869 868 868 867 865 863 860 857 853 849 843 837 833 831 830 826 822 818 834 834 841 836 832 828 840 827 831 821 820 816 813 812 804 798 798 792 776 741 729 730 727 731 723 720 693 704 654
868 868 867 866 864 863 861 858 854 850 844 838 835 837 832 829 826 832 857 854 841 832 832 833 833 839 844 837 819 825 821 803 797 785 790 790 792 747 735 741 740 731 729 725 716 704 660
868 868 867 865 864 863 861 858 855 850 845 839 840 846 836 832 840 847 854 843 835 832 829 830 828 843 844 822 823 817 814 800 787 784 782 779 774 760 744 730 736 728 728 725 712 700 691
867 867 866 865 864 862 861 858 856 851 847 844 850 847 838 836 859 856 849 842 838 833 830 828 828 824 829 822 821 809 799 785 784 781 788 779 776 762 741 736 730 737 726 717 696 701 688
864 865 866 865 864 862 860 857 855 853 850 847 851 859 845 845 850 863 868 848 840 832 831 827 826 824 823 819 813 811 800 787 784 778 764 767 774 774 770 758 748 737 730 727 711 695 677
863 864 865 865 863 862 860 858 855 854 851 850 857 864 857 863 851 853 854 860 845 836 832 829 827 823 832 831 814 805 794 793 782 775 774 777 781 755 746 746 743 741 739 733 729 722 715
862 862 863 863 863 861 859 857 855 853 851 851 862 866 861 860 854 853 850 854 841 838 840 831 828 823 825 839 822 808 805 801 798 783 780 775 772 757 751 742 741 747 743 733 732 730 726
861 862 861 861 861 860 858 856 856 854 854 853 855 855 857 855 856 860 850 842 842 839 830 827 827 828 822 812 807 798 797 799 795 794 785 781 771 761 751 740 736 743 756 745 746 744 743
860 860 860 860 860 859 858 856 856 854 852 853 853 854 855 859 854 844 842 842 841 838 839 827 826 829 816 808 800 792 790 788 789 784 785 781 773 761 756 741 754 763 759 756 747 747 743
857 858 858 858 859 858 857 856 855 854 853 850 851 852 853 856 849 843 842 841 841 838 834 828 822 819 816 812 812 806 800 790 783 780 782 782 776 771 761 754 744 747 762 761 765 753 756
855 856 856 856 857 857 856 856 854 853 851 849 848 848 849 852 852 841 847 847 851 853 841 827 821 816 817 815 819 835 825 812 801 791 781 781 781 776 763 756 760 791 764 751 745 737 752
852 854 855 854 855 854 853 853 852 850 850 848 846 845 847 851 842 843 847 848 839 840 842 839 830 824 821 825 822 828 822 813 820 811 804 805 810 793 780 771 777 790 770 748 759 779 764
849 851 852 852 852 852 852 850 849 848 847 846 845 844 845 850 839 837 836 839 838 841 854 837 835 833 835 838 835 842 842 839 836 813 811 834 827 812 801 808 789 788 782 784 794 780 774
847 849 849 849 850 850 849 848 848 846 844 843 843 843 843 844 837 833 832 831 831 831 833 838 839 836 830 839 839 829 828 844 850 836 816 833 841 840 817 807 800 797 798 796 794 788 776